Muskegon, MI

4:28 AM EST on November 19, 2017 (GMT -0500)
Muskegon County

Weather History for KMKG - March, 2014

Change the Weather History Date:

Thursday, March 20, 2014

  Actual Average Record
Temperature  
Mean Temperature 31 °F 36 °F  
Max Temperature 37 °F 45 °F 82 °F (2012)
Min Temperature 24 °F 28 °F 8 °F (1965)
Degree Days  
Heating Degree Days 34 29  
Month to date heating degree days 786 639  
Since 1 July heating degree days 5926 5371  
Cooling Degree Days 0 0  
Month to date cooling degree days 0 0  
Year to date cooling degree days 0 0  
Moisture  
Dew Point 24 °F    
Average Humidity 67    
Maximum Humidity 82    
Minimum Humidity 52    
Precipitation  
Precipitation T in 0.07 in 1.04 in (2011)
Month to date precipitation 0.53 1.41  
Year to date precipitation 5.66 5.27  
Snow  
Snow T in 0.20 in 9.00 in (1922)
Month to date snowfall 6.3 6.9  
Since 1 July snowfall 129.9 89.3  
Snow Depth 3.00 in    
Sea Level Pressure  
Sea Level Pressure 29.97 in    
Wind  
Wind Speed 10 mph (WNW)    
Max Wind Speed 20 mph    
Max Gust Speed 27 mph    
Visibility 9 miles    
Events Snow    
T = Trace of Precipitation, MM = Missing Value Source: NWS Daily Summary

Daily Weather History Graph

Daily Weather History Graph

Search for Another Location

Airport or City:

Trip Planner

Search our weather history database for the weather conditions in past years. The results will help you decide how hot, cold, wet, or windy it might be!

Date:

Astronomy

Mar. 20, 2014 Rise Set
Actual Time 7:48 AM EDT 7:57 PM EDT
Civil Twilight 7:19 AM EDT 8:25 PM EDT
Nautical Twilight 6:46 AM EDT 8:59 PM EDT
Astronomical Twilight 6:12 AM EDT 9:33 PM EDT
Moon No Moon Rise 9:47 AM EDT (3/20)
Length of Visible Light 13h 05m
Length of Day
12h 09m
Waning Gibbous, 84% of the Moon is Illuminated
Mar 20
Waning Gibbous
Mar 23
Last Quarter
Mar 30
New
Apr 7
First Quarter
Apr 15
Full

Hourly Weather History & Observations

Time (EDT) Temp. Windchill Dew Point Humidity Pressure Visibility Wind Dir Wind Speed Gust Speed Precip Events Conditions
12:06 AM 33.1 °F 22.2 °F 28.9 °F 85% 29.85 in 2.0 mi West 17.3 mph 25.3 mph 0.00 in Snow Light Snow
12:15 AM 33.1 °F 23.0 °F 28.9 °F 85% 29.85 in 1.2 mi WNW 15.0 mph - 0.00 in Snow Light Snow
12:30 AM 33.1 °F 22.2 °F 28.9 °F 85% 29.85 in 2.0 mi WNW 17.3 mph 23.0 mph 0.00 in Snow Light Snow
12:38 AM 33.1 °F 22.2 °F 28.9 °F 85% 29.86 in 5.0 mi West 17.3 mph 29.9 mph 0.00 in Snow Light Snow
12:55 AM 34.0 °F 24.2 °F 28.9 °F 82% 29.88 in 5.0 mi WNW 15.0 mph 25.3 mph 0.00 in Snow Light Snow
1:55 AM 34.0 °F 24.2 °F 28.0 °F 79% 29.90 in 10.0 mi West 15.0 mph - 0.00 in   Overcast
2:04 AM 34.0 °F 24.2 °F 27.0 °F 75% 29.88 in 10.0 mi WNW 15.0 mph - N/A   Overcast
2:36 AM 34.0 °F 24.6 °F 27.0 °F 75% 29.88 in 10.0 mi West 13.8 mph - N/A   Overcast
2:44 AM 34.0 °F 25.5 °F 27.0 °F 75% 29.88 in 10.0 mi WNW 11.5 mph - N/A   Overcast
2:55 AM 34.0 °F 24.6 °F 27.0 °F 75% 29.91 in 10.0 mi WNW 13.8 mph - N/A   Overcast
3:55 AM 34.0 °F 24.2 °F 26.1 °F 73% 29.91 in 10.0 mi West 15.0 mph - N/A   Overcast
4:55 AM 34.0 °F 23.8 °F 26.1 °F 73% 29.92 in 10.0 mi West 16.1 mph - N/A   Overcast
5:55 AM 34.0 °F 24.2 °F 25.0 °F 70% 29.93 in 10.0 mi West 15.0 mph - N/A   Overcast
6:55 AM 34.0 °F 25.0 °F 25.0 °F 70% 29.95 in 10.0 mi West 12.7 mph 23.0 mph N/A   Overcast
7:55 AM 33.1 °F 23.4 °F 24.1 °F 70% 29.97 in 10.0 mi West 13.8 mph 21.9 mph N/A   Overcast
8:55 AM 33.1 °F 23.0 °F 23.0 °F 66% 29.98 in 10.0 mi West 15.0 mph - N/A   Overcast
9:55 AM 34.0 °F 24.2 °F 23.0 °F 64% 30.00 in 10.0 mi WNW 15.0 mph - N/A   Scattered Clouds
10:55 AM 34.0 °F 26.0 °F 23.0 °F 64% 30.01 in 10.0 mi WNW 10.4 mph 19.6 mph N/A   Overcast
11:55 AM 36.0 °F 28.5 °F 24.1 °F 62% 30.02 in 10.0 mi WNW 10.4 mph 20.7 mph N/A   Overcast
12:55 PM 36.0 °F 27.5 °F 21.9 °F 57% 30.02 in 10.0 mi WNW 12.7 mph 20.7 mph N/A   Overcast
1:55 PM 36.0 °F 27.5 °F 21.0 °F 55% 30.03 in 10.0 mi WNW 12.7 mph 24.2 mph N/A   Overcast
2:55 PM 36.0 °F 27.5 °F 19.0 °F 50% 30.02 in 10.0 mi NW 12.7 mph 24.2 mph N/A   Mostly Cloudy
3:55 PM 36.0 °F 28.5 °F 19.9 °F 52% 30.03 in 10.0 mi NW 10.4 mph 18.4 mph N/A   Overcast
4:55 PM 36.0 °F 29.0 °F 19.0 °F 50% 30.04 in 10.0 mi NW 9.2 mph - N/A   Overcast
5:55 PM 36.0 °F 30.3 °F 21.0 °F 55% 30.04 in 10.0 mi WNW 6.9 mph - N/A   Mostly Cloudy
6:55 PM 35.1 °F 30.1 °F 21.0 °F 57% 30.04 in 10.0 mi West 5.8 mph - N/A   Scattered Clouds
7:55 PM 34.0 °F 31.0 °F 19.9 °F 56% 30.05 in 10.0 mi West 3.5 mph - N/A   Scattered Clouds
8:55 PM 28.0 °F 21.7 °F 21.0 °F 75% 30.06 in 10.0 mi SSW 5.8 mph - N/A   Partly Cloudy
9:55 PM 28.0 °F - 21.0 °F 75% 30.06 in 10.0 mi Calm Calm - N/A   Partly Cloudy
10:55 PM 27.0 °F - 19.9 °F 75% 30.07 in 10.0 mi Calm Calm - N/A   Partly Cloudy
11:55 PM 26.1 °F - 21.0 °F 81% 30.09 in 10.0 mi Calm Calm - N/A   Clear